[[[{"header":{"parameterUnit":"kt","parameterCategory":2,"dx":1,"dy":1,"la1":30.253999710083008,"la2":30.299108505249023,"lo1":-89.0895004272461,"lo2":-89.04439544677734,"nx":28,"ny":28,"refTime":"2022-10-09T21:00:00:Z","depth":0,"parameterNumber":1,"parameterNumberName":"U-component_of_WINDS"},"data":[-1.949,-1.9515,-1.9509,-1.9535,-1.9534,-1.955,-1.9554,-1.9558,-1.9559,-1.9578,-1.9587,-1.9583,-1.9582,-1.9591,-1.9601,-1.9598,-1.9602,-1.9617,-1.9611,-1.9554,-1.9546,-1.9538,-1.9531,-1.9618,-1.9618,-1.967,-1.967,-1.9671,-1.9453,-1.9452,-1.9464,-1.947,-1.948,-1.9464,-1.9467,-1.9476,-1.9491,-1.9493,-1.9501,-1.9517,-1.9528,-1.9521,-1.953,-1.9541,-1.9532,-1.9544,-1.9542,-1.9541,-1.9481,-1.9474,-1.9551,-1.9551,-1.9551,-1.9551,-1.9551,-1.9551,-1.9382,-1.9397,-1.9396,-1.9409,-1.941,-1.9415,-1.9428,-1.9422,-1.9432,-1.9441,-1.9431,-1.9446,-1.9446,-1.9453,-1.9453,-1.9465,-1.9451,-1.9461,-1.9463,-1.9465,-1.9468,-1.9394,-1.9467,-1.9466,-1.9466,-1.9466,-1.9466,0,-1.9327,-1.932,-1.933,-1.9339,-1.9347,-1.9352,-1.9356,-1.9364,-1.9346,-1.9355,-1.9368,-1.9374,-1.9386,-1.9396,-1.9403,-1.94,-1.9381,-1.9379,-1.9385,-1.9389,-1.9393,-1.939,-1.9291,-1.9376,-1.9375,-1.9374,-1.9374,-1.9374,-1.9253,-1.9271,-1.9267,-1.9275,-1.9275,-1.9287,-1.9293,-1.9276,-1.9283,-1.9285,-1.9298,-1.9309,-1.9316,-1.9337,-1.9328,-1.9336,-1.9326,-1.936,-1.9327,-1.9332,-1.9325,-1.9324,-1.9325,-1.9365,-1.9366,-1.9367,-1.9368,0,-1.9212,-1.92,-1.9225,-1.9218,-1.9217,-1.9237,-1.9231,-1.9244,-1.9236,-1.9254,-1.9257,-1.9243,-1.9255,-1.924,-1.9251,-1.9242,-1.9275,-1.9266,-1.9275,-1.9272,-1.9299,-1.9296,-1.9392,-1.9403,-1.9314,-1.9315,-1.9316,0,-1.9143,-1.9167,-1.9147,-1.9162,-1.9189,-1.9169,-1.9196,-1.9191,-1.9189,-1.9203,-1.9179,-1.9192,-1.917,-1.9182,-1.9169,-1.9193,-1.9195,-1.919,-1.9186,-1.9191,-1.9191,-1.9192,-1.9187,-1.9177,-1.9177,-1.9177,-1.9176,0,-1.9079,-1.9096,-1.9121,-1.9122,-1.9115,-1.9128,-1.9126,-1.9123,-1.9128,-1.9133,-1.9136,-1.9143,-1.9147,-1.9153,-1.9136,-1.9115,-1.9165,-1.9132,-1.9159,-1.916,-1.9169,-1.9168,-1.9259,-1.9176,-1.9175,-1.9175,-1.9175,0,-1.902,-1.9025,-1.9063,-1.9057,-1.9061,-1.9078,-1.9083,-1.9093,-1.9092,-1.9085,-1.9088,-1.9069,-1.9089,-1.9057,-1.9084,-1.9061,-1.9066,-1.9062,-1.9064,-1.9062,-1.9027,-1.9078,-1.9168,-1.9175,-1.9065,-1.9064,-1.9063,0,-1.8949,-1.8983,-1.8966,-1.9002,-1.9015,-1.8986,-1.9004,-1.9003,-1.8995,-1.9005,-1.8996,-1.9007,-1.898,-1.8981,-1.8997,-1.8987,-1.9017,-1.8982,-1.8996,-1.8997,-1.8996,-1.9079,-1.9094,-1.915,-1.9051,-1.9052,-1.9053,0,-1.8892,-1.8882,-1.889,-1.889,-1.8885,-1.8895,-1.8916,-1.8922,-1.893,-1.8931,-1.8947,-1.8963,-1.8943,-1.8944,-1.8929,-1.8946,-1.8996,-1.8922,-1.8921,-1.8935,-1.9044,-1.9059,-1.9069,-1.8982,-1.8984,-1.8985,-1.9044,0,-1.8804,-1.8818,-1.8838,-1.8839,-1.8844,-1.8866,-1.8847,-1.8856,-1.884,-1.883,-1.8854,-1.8847,-1.8853,-1.8859,-1.8843,-1.8887,-1.8877,-1.8855,-1.8821,-1.8876,-1.8895,-1.8903,-1.8795,-1.8794,-1.8793,-1.8792,0,0,-1.8739,-1.8758,-1.8737,-1.8755,-1.8758,-1.8726,-1.875,-1.8749,-1.8748,-1.875,-1.8732,-1.8752,-1.8747,-1.8777,-1.8793,-1.8796,-1.8801,-1.8782,-1.885,-1.8857,-1.8863,-1.8883,-1.8892,-1.879,-1.879,-1.879,-1.8789,0,-1.8702,-1.8698,-1.8722,-1.872,-1.8716,-1.8704,-1.871,-1.87,-1.8694,-1.8716,-1.8688,-1.87,-1.8716,-1.8714,-1.8716,-1.8779,-1.8756,-1.8782,-1.8823,-1.8842,-1.8849,-1.8856,-1.8878,-1.8887,-1.8787,-1.8787,-1.8787,0,-1.8641,-1.8633,-1.8643,-1.8648,-1.8644,-1.8658,-1.8618,-1.8634,-1.8644,-1.8606,-1.8628,-1.8622,-1.8618,-1.8649,-1.8662,-1.8645,-1.8716,-1.869,-1.8695,-1.8696,-1.8713,-1.8723,-1.8731,-1.862,-1.8619,-1.8619,0,0,-1.8611,-1.8624,-1.8609,-1.8638,-1.8638,-1.8619,-1.8624,-1.8608,-1.8605,-1.8604,-1.8594,-1.8592,-1.8601,-1.8607,-1.8615,-1.8651,-1.8648,-1.867,-1.8678,-1.8685,-1.8689,-1.8708,-1.8717,-1.8617,-1.8617,-1.8617,0,0,-1.8596,-1.858,-1.8564,-1.8595,-1.8594,-1.858,-1.8599,-1.8579,-1.8583,-1.8578,-1.8551,-1.8549,-1.8578,-1.8572,-1.8549,-1.8602,-1.8569,-1.8574,-1.8604,-1.8614,-1.8621,-1.8621,-1.8506,0,0,0,0,0,-1.8548,-1.8582,-1.8568,-1.857,-1.8575,-1.8588,-1.8589,-1.8567,-1.8544,-1.856,-1.8549,-1.8524,-1.8554,-1.8533,-1.8536,-1.8561,-1.8592,-1.8596,-1.8601,-1.8648,-1.8658,-1.8667,0,0,0,0,0,0,-1.8548,-1.8551,-1.8567,-1.8555,-1.8556,-1.8587,-1.8544,-1.8539,-1.8542,-1.8537,-1.8527,-1.8524,-1.8505,-1.853,-1.8533,-1.8557,-1.8505,-1.8594,-1.8598,-1.8601,-1.8651,-1.866,-1.8667,0,0,0,0,0,-1.8549,-1.8551,-1.8564,-1.8554,-1.8555,-1.8535,-1.8542,-1.8537,-1.854,-1.8522,-1.8518,-1.8523,-1.8507,-1.8507,-1.8532,-1.8557,-1.8503,-1.8504,-1.8596,-1.8599,-1.8602,-1.8656,0,0,0,0,0,0,-1.8549,-1.8547,-1.8564,-1.8563,-1.8539,-1.8532,-1.8531,-1.8537,-1.8524,-1.852,-1.8517,-1.8513,-1.8508,-1.8508,-1.8509,-1.8558,-1.8501,-1.8502,-1.8503,-1.8598,-1.8601,-1.8603,0,0,0,0,0,0,-1.8546,-1.8547,-1.8563,-1.8545,-1.8542,-1.853,-1.8529,-1.8546,-1.8524,-1.8519,-1.8515,-1.8515,-1.8507,-1.8509,-1.851,-1.8537,-1.85,-1.8501,-1.8502,-1.8502,-1.86,-1.8602,0,0,0,0,0,0,-1.8546,-1.8547,-1.8545,-1.8543,-1.8541,-1.8532,-1.8545,-1.8551,-1.8509,-1.852,-1.8505,-1.8503,-1.8508,-1.8508,-1.851,-1.8538,-1.8537,-1.85,-1.85,-1.8501,-1.8501,0,0,0,0,0,0,0,-1.8546,-1.8544,-1.8567,-1.8541,-1.8539,-1.8558,-1.8558,-1.8557,-1.8509,-1.8507,-1.8505,-1.8504,-1.8494,-1.8495,-1.8496,-1.8538,0,0,-1.85,-1.85,0,0,0,0,0,0,0,0,-1.8543,-1.8544,-1.8567,-1.8567,-1.8567,-1.8558,-1.8558,-1.8557,-1.8508,-1.8507,-1.8506,-1.8504,-1.8494,-1.8495,-1.8496,0,0,0,0,0,0,0,0,0,0,0,0,0,0,0,-1.8567,-1.8567,0,-1.8558,-1.8558,-1.8557,-1.8508,-1.8507,-1.8506,-1.8505,-1.8494,-1.8495,-1.8496,0,0,0,0,0,0,0,0,0,0,0,0,0,0,0,0,0,0,0,0,0,0,0,0,0,0,0,0,0,0,0,0,0,0,0,0,0,0,0,0,0,0,0,0,0,0,0,0,0,0,0,0,0,0,0,0,0,0,0,0,0,0,0,0,0,0,0,0,0]}],[{"header":{"parameterUnit":"kt","parameterCategory":2,"dx":1,"dy":1,"la1":30.253999710083008,"la2":30.299108505249023,"lo1":-89.0895004272461,"lo2":-89.04439544677734,"nx":28,"ny":28,"refTime":"2022-10-09T21:00:00:Z","depth":0,"parameterNumber":2,"parameterNumberName":"V-component_of_WINDS"},"data":[-6.4729,-6.4884,-6.4953,-6.516,-6.5257,-6.5409,-6.5485,-6.559,-6.569,-6.5878,-6.5998,-6.608,-6.6204,-6.6361,-6.6492,-6.6525,-6.6574,-6.6583,-6.6619,-6.6526,-6.6518,-6.6509,-6.6477,-6.6593,-6.6594,-6.6705,-6.6705,-6.6706,-6.4664,-6.4762,-6.4892,-6.5062,-6.5174,-6.521,-6.5347,-6.5436,-6.557,-6.5694,-6.5814,-6.5984,-6.6124,-6.6247,-6.6393,-6.6465,-6.6487,-6.6499,-6.6493,-6.6512,-6.6416,-6.6382,-6.648,-6.648,-6.648,-6.6479,-6.6479,-6.6479,-6.4564,-6.4653,-6.4796,-6.4937,-6.5041,-6.5154,-6.525,-6.5348,-6.5473,-6.5634,-6.5688,-6.5839,-6.5972,-6.6177,-6.6261,-6.638,-6.6376,-6.6409,-6.6417,-6.6423,-6.6422,-6.6254,-6.6407,-6.6407,-6.6407,-6.6407,-6.6407,0,-6.451,-6.4562,-6.4688,-6.4837,-6.4942,-6.5062,-6.5181,-6.5243,-6.5367,-6.5463,-6.5609,-6.5703,-6.5889,-6.603,-6.6179,-6.626,-6.6299,-6.631,-6.6333,-6.6308,-6.6269,-6.6291,-6.6132,-6.6303,-6.6302,-6.6302,-6.6301,-6.6301,-6.4413,-6.4508,-6.4687,-6.4767,-6.4849,-6.4976,-6.5064,-6.5167,-6.5255,-6.5416,-6.5487,-6.5632,-6.5752,-6.597,-6.6077,-6.6213,-6.6232,-6.6291,-6.6252,-6.6228,-6.6232,-6.6225,-6.6235,-6.6295,-6.6295,-6.6296,-6.6297,0,-6.4351,-6.4459,-6.4626,-6.4793,-6.4838,-6.4931,-6.5072,-6.5163,-6.5246,-6.5382,-6.542,-6.5548,-6.5686,-6.5785,-6.596,-6.6007,-6.6161,-6.6178,-6.6118,-6.6126,-6.6188,-6.618,-6.6373,-6.6404,-6.6286,-6.6287,-6.6288,0,-6.4308,-6.4427,-6.4581,-6.4671,-6.4808,-6.4907,-6.5039,-6.5122,-6.5238,-6.5345,-6.5408,-6.5507,-6.5617,-6.573,-6.5799,-6.5943,-6.5975,-6.6018,-6.6034,-6.6011,-6.6006,-6.6054,-6.6047,-6.6068,-6.6067,-6.6066,-6.6065,0,-6.4198,-6.4418,-6.4568,-6.4634,-6.482,-6.4887,-6.4967,-6.5095,-6.5178,-6.5302,-6.5357,-6.5493,-6.5567,-6.5671,-6.5757,-6.5727,-6.5935,-6.5911,-6.5978,-6.5976,-6.6015,-6.601,-6.6162,-6.6064,-6.6063,-6.6063,-6.6062,0,-6.4176,-6.4303,-6.4503,-6.4659,-6.4712,-6.4809,-6.4951,-6.5056,-6.5186,-6.5236,-6.5333,-6.5384,-6.5516,-6.5487,-6.5671,-6.5608,-6.5677,-6.5731,-6.5737,-6.5751,-6.5714,-6.5783,-6.5919,-6.5936,-6.5771,-6.5769,-6.5767,0,-6.4022,-6.425,-6.4336,-6.4521,-6.464,-6.4703,-6.4812,-6.4924,-6.5,-6.511,-6.5193,-6.5315,-6.5313,-6.5364,-6.5444,-6.5531,-6.5614,-6.5524,-6.5677,-6.5681,-6.564,-6.5768,-6.5761,-6.588,-6.5737,-6.574,-6.5742,0,-6.3913,-6.4137,-6.4163,-6.4243,-6.4408,-6.4505,-6.463,-6.4775,-6.4843,-6.4961,-6.5067,-6.5241,-6.5247,-6.5329,-6.5382,-6.5459,-6.5561,-6.5453,-6.5457,-6.5468,-6.5729,-6.5724,-6.5744,-6.558,-6.5584,-6.5587,-6.5718,0,-6.3856,-6.3982,-6.406,-6.4229,-6.4321,-6.4441,-6.4544,-6.4626,-6.467,-6.4745,-6.4902,-6.5014,-6.5155,-6.5202,-6.5242,-6.5387,-6.5377,-6.5379,-6.5353,-6.5436,-6.5482,-6.55,-6.5277,-6.5277,-6.5277,-6.5277,0,0,-6.368,-6.3862,-6.3948,-6.4072,-6.4154,-6.4213,-6.4332,-6.4418,-6.4587,-6.4641,-6.4629,-6.4888,-6.4977,-6.5155,-6.5189,-6.5246,-6.528,-6.5245,-6.5396,-6.5409,-6.5421,-6.5468,-6.5486,-6.5277,-6.5277,-6.5276,-6.5276,0,-6.3679,-6.3776,-6.3893,-6.3987,-6.4128,-6.4202,-6.423,-6.4378,-6.443,-6.4583,-6.4625,-6.473,-6.4931,-6.5022,-6.5094,-6.5229,-6.5251,-6.5264,-6.5304,-6.5391,-6.5404,-6.5416,-6.5464,-6.5481,-6.5276,-6.5276,-6.5276,0,-6.3589,-6.3701,-6.3768,-6.3956,-6.4047,-6.4165,-6.4165,-6.4288,-6.4376,-6.4426,-6.4575,-6.465,-6.4777,-6.4931,-6.5003,-6.4993,-6.522,-6.5164,-6.5168,-6.5176,-6.5265,-6.5281,-6.5294,-6.5111,-6.511,-6.5109,0,0,-6.3574,-6.3691,-6.3837,-6.3963,-6.4018,-6.4128,-6.4199,-6.4248,-6.4364,-6.4409,-6.4504,-6.4612,-6.4731,-6.4806,-6.4922,-6.5076,-6.5109,-6.5139,-6.5147,-6.5153,-6.5165,-6.5255,-6.5271,-6.5105,-6.5105,-6.5105,0,0,-6.3565,-6.3741,-6.3765,-6.3924,-6.4034,-6.4183,-6.4255,-6.4286,-6.44,-6.4397,-6.4482,-6.4514,-6.4659,-6.4728,-6.4669,-6.4913,-6.4886,-6.4902,-6.4862,-6.4873,-6.4881,-6.4859,-6.4679,0,0,0,0,0,-6.3615,-6.372,-6.374,-6.3782,-6.4015,-6.4173,-6.4203,-6.4278,-6.4259,-6.4315,-6.4399,-6.4418,-6.4715,-6.4664,-6.4702,-6.4766,-6.5058,-6.5067,-6.5074,-6.506,-6.5071,-6.508,0,0,0,0,0,0,-6.3632,-6.3683,-6.3738,-6.389,-6.3943,-6.417,-6.4154,-6.4177,-6.4255,-6.4257,-6.4402,-6.4423,-6.4487,-6.4649,-6.4683,-6.4742,-6.4668,-6.5062,-6.5069,-6.5075,-6.5064,-6.5072,-6.508,0,0,0,0,0,-6.3646,-6.3687,-6.4042,-6.3889,-6.3935,-6.406,-6.415,-6.417,-6.423,-6.4359,-6.4381,-6.428,-6.4486,-6.4519,-6.467,-6.4725,-6.4645,-6.4657,-6.5066,-6.5072,-6.5077,-6.5068,0,0,0,0,0,0,-6.3656,-6.3705,-6.4053,-6.407,-6.3854,-6.4049,-6.4082,-6.4163,-6.4329,-6.4352,-6.4241,-6.424,-6.4488,-6.4513,-6.4538,-6.4715,-6.4627,-6.4639,-6.4647,-6.507,-6.5075,-6.5079,0,0,0,0,0,0,-6.3683,-6.3718,-6.4061,-6.4013,-6.4025,-6.4038,-6.4068,-6.4204,-6.433,-6.4201,-6.4207,-6.4239,-6.4448,-6.4509,-6.4528,-6.4739,-6.4613,-6.4625,-6.4633,-6.4638,-6.5074,-6.5077,0,0,0,0,0,0,-6.3699,-6.373,-6.4009,-6.4019,-6.4029,-6.4222,-6.416,-6.4393,-6.4293,-6.4193,-6.4286,-6.4282,-6.4444,-6.4465,-6.4522,-6.4723,-6.4735,-6.4613,-6.4621,-6.4627,-6.4631,0,0,0,0,0,0,0,-6.3712,-6.3492,-6.3954,-6.4023,-6.4032,-6.4225,-6.4229,-6.4234,-6.4292,-6.4289,-6.4287,-6.4284,-6.4545,-6.4558,-6.4571,-6.4711,0,0,-6.4612,-6.4618,0,0,0,0,0,0,0,0,-6.3481,-6.3489,-6.3954,-6.3958,-6.3961,-6.4225,-6.4229,-6.4233,-6.4292,-6.4289,-6.4287,-6.4285,-6.4549,-6.4559,-6.457,0,0,0,0,0,0,0,0,0,0,0,0,0,0,0,-6.3955,-6.3958,0,-6.4226,-6.4229,-6.4232,-6.4291,-6.429,-6.4288,-6.4286,-6.4552,-6.456,-6.4569,0,0,0,0,0,0,0,0,0,0,0,0,0,0,0,0,0,0,0,0,0,0,0,0,0,0,0,0,0,0,0,0,0,0,0,0,0,0,0,0,0,0,0,0,0,0,0,0,0,0,0,0,0,0,0,0,0,0,0,0,0,0,0,0,0,0,0,0,0]}]]]